Location: *
(52.2090°N, 4.1550°W)
Time: 00:22:45
(UTC+00:00)

Cosmos 2322 - Pass Details

Date: 19 July 2019
Orbit: 840 x 855 km, 71.0° (Epoch: 21 August)

Event Time Altitude Azimuth Distance (km) Brightness Sun altitude
Rises 21:34:00 0° 185° (S) 3,382 6.4 -8.3°
Reaches altitude 10° 21:36:31 10° 179° (S) 2,453 5.6 -8.5°
Maximum altitude 21:41:47 43° 110° (ESE) 1,179 4.1 -9.0°
Drops below altitude 10° 21:47:06 10° 41° (NE) 2,475 6.3 -9.5°
Sets 21:49:39 0° 35° (NE) 3,417 7.1 -9.7°
